Skip Page Navigation
NASA JPL Caltech
NASA Logo - Jet Propulsion Laboratory + View the NASA Portal
+ Center for Near-Earth Object Studies
JPL Home Earth Solar System Stars & Galaxies Technology
JPL Solar System Dynamics
BODIES ORBITS EPHEMERIDES TOOLS PHYSICAL DATA DISCOVERY FAQ SITE MAP
JPL Small-Body Database Browser
Search: [ help ]  
413501 (2005 QU64)
Classification: Main-belt Asteroid          SPK-ID: 2413501
Ephemeris | Orbit Diagram | Orbital Elements | Mission Design | Physical Parameters | Discovery Circumstances ]

[ show orbit diagram ]
Orbital Elements at Epoch 2459396.5 (2021-Jul-01.0) TDB
Reference: JPL 17 (heliocentric ecliptic J2000)
 Element Value Uncertainty (1-sigma)   Units 
e .1854802408046504 4.424e-08  
a 2.637206777136063 2.0688e-08 au
q 2.14805702906121 1.2013e-07 au
i 14.07154115097464 6.3752e-06 deg
node 351.3076802103078 1.9936e-05 deg
peri 314.6604031889964 2.9035e-05 deg
M 277.0480586319005 2.4936e-05 deg
tp 2459756.944792361563
(2022-Jun-26.44479236)
0.00011106 TDB
period 1564.280752325637
4.28
1.8407e-05
5.04e-08
d
yr
n .2301377163049428 2.708e-09 deg/d
Q 3.126356525210916 2.4525e-08 au
  Orbit Determination Parameters
   # obs. used (total)      226  
   data-arc span      5710 days (15.63 yr)  
   first obs. used      2005-08-26  
   last obs. used      2021-04-14  
   planetary ephem.      DE441  
   SB-pert. ephem.      SB441-N16  
   condition code      0  
   norm. resid. RMS      .60107  
   source      ORB  
   producer      Otto Matic  
   solution date      2021-Jul-09 07:33:28  

Additional Information
 Earth MOID = 1.15783 au 
 Jupiter MOID = 2.27149 au 
 T_jup = 3.330 
[ show covariance matrix ]

Ephemeris | Orbit Diagram | Orbital Elements | Mission Design | Physical Parameters | Discovery Circumstances ]

Physical Parameter Table
Parameter Symbol Value Units Sigma Reference Notes
absolute magnitude H 16.68   n/a MPCxxxxx  

413501 (2005 QU64)          Discovered 2005-Aug-26 by NEAT at Palomar
Reference: Last Updated: 2014-11-10
Ephemeris | Orbit Diagram | Orbital Elements | Mission Design | Physical Parameters | Discovery Circumstances ]
ABOUT SSD CREDITS/AWARDS PRIVACY/COPYRIGHT GLOSSARY LINKS
FirstGov 2021-Aug-01 15:19 UT
(server date/time)  
NASA Home Page
Site Manager:   Ryan S. Park
Webmaster  Alan B. Chamberlin